Theta_e
333 332 331 330 330 330 329 328 328 328 328 325 325 325 323 325 325 326 325 323 322 320 320 319 319 320 319 320 320 319 317 316 313 314 316 317 316 316 318 318 320 318 318
326 325 325 325 324 322 321 321 322 321 322 319 320 318 317 317 319 318 317 317 317 316 316 316 316 318 317 318 318 316 316 314 311 307 310 312 314 316 316 316 315 316 315
323 321 321 320 319 318 318 318 318 318 317 317 316 316 316 317 317 316 316 313 312 311 312 312 313 315 314 315 314 314 313 313 313 311 310 313 313 315 313 314 314 314 316
319 318 318 318 318 318 319 318 318 318 317 317 318 317 317 313 309 309 309 308 309 310 311 312 312 312 313 313 311 311 312 311 311 309 308 308 310 311 313 311 310 313 313
316 315 316 316 316 316 316 317 317 317 317 316 316 316 314 311 305 304 306 305 306 307 310 312 313 314 315 313 312 310 309 308 307 306 306 307 307 308 308 310 309 310 313
314 312 314 314 314 315 315 315 315 314 313 313 313 312 310 306 300 300 301 301 305 307 309 312 313 314 312 310 307 305 305 303 302 302 302 302 303 304 306 306 306 305 303
310 310 311 312 312 312 312 311 311 310 311 309 309 308 307 303 298 297 299 301 307 309 307 306 307 310 304 300 300 302 303 303 304 302 300 301 302 304 305 303 304 304 303
309 309 310 309 309 310 309 308 308 308 306 306 306 306 307 301 297 296 297 301 302 304 308 308 309 307 298 296 296 297 298 300 301 302 302 302 303 304 304 304 303 303 303
308 308 308 308 307 307 306 306 305 305 304 305 304 305 305 304 296 295 296 300 303 304 306 308 304 299 295 294 294 294 296 298 302 302 301 299 297 297 299 299 298 298 297
307 307 308 307 306 304 304 303 303 303 303 303 303 306 303 302 296 294 294 298 300 300 305 306 302 295 293 292 293 293 293 295 295 298 300 304 305 307 303 304 301 297 298
307 307 306 307 305 304 303 303 302 301 301 300 300 303 303 300 297 293 293 296 297 300 302 301 298 294 292 292 293 294 292 293 295 300 302 306 309 309 308 307 306 302 300
305 304 304 304 303 302 302 301 300 299 298 296 297 298 299 298 294 292 293 294 296 297 300 297 295 292 292 292 293 292 292 295 297 298 300 301 303 307 306 306 306 306 306
302 302 302 303 301 300 298 296 295 295 294 292 292 293 294 297 293 293 294 294 295 299 300 297 294 292 292 293 293 293 294 295 295 296 297 301 306 308 305 305 305 306 306
301 301 302 300 298 297 296 293 290 289 289 289 288 289 291 292 291 290 291 294 295 297 297 296 295 294 293 294 293 293 294 294 295 295 298 304 310 307 303 304 303 303 302
299 299 298 300 298 294 292 291 289 287 287 286 286 287 288 287 287 288 288 290 291 293 293 295 293 292 291 291 292 292 292 292 292 295 298 302 307 308 307 305 305 307 304
297 298 297 299 298 296 293 290 290 289 288 288 288 287 288 288 288 288 289 290 291 292 298 293 292 291 290 289 289 290 290 290 291 294 297 301 304 304 304 305 309 307 305
296 297 298 298 297 294 290 288 286 288 289 288 288 288 288 287 287 288 289 291 290 291 292 292 291 290 289 289 289 290 289 290 291 294 296 299 305 304 303 301 302 303 302
297 294 298 297 297 295 291 288 286 285 286 286 288 288 288 287 287 287 288 292 291 291 289 289 289 289 289 288 289 290 291 290 290 293 295 298 302 305 302 301 300 299 299
298 297 299 298 297 296 292 289 289 288 288 287 288 290 289 288 288 288 288 287 286 287 288 289 289 288 289 289 289 290 291 290 290 293 294 298 302 305 304 304 301 294 295
295 292 295 298 297 296 294 293 292 292 291 290 288 289 291 294 292 292 288 287 286 286 287 288 290 289 288 288 289 289 289 290 289 292 293 297 301 303 304 304 303 298 297
296 295 292 294 293 294 293 293 292 292 291 291 290 290 285 292 292 292 293 292 287 286 287 289 289 289 289 288 287 288 287 287 287 290 292 296 301 301 304 307 303 302 299
295 295 293 292 293 291 291 292 292 291 291 290 290 290 287 292 292 292 293 293 293 290 291 292 289 288 288 287 286 286 285 284 284 288 290 294 300 301 303 303 307 303 301
294 293 293 293 293 292 292 291 291 291 290 290 290 290 290 290 291 291 292 293 294 294 293 293 290 287 287 286 286 286 284 283 283 288 288 293 298 299 301 300 302 303 301
294 294 293 292 293 292 292 291 291 288 290 290 290 290 290 290 291 291 291 292 293 294 293 292 291 287 286 285 285 285 284 283 285 286 287 295 295 297 299 298 299 300 301
293 293 292 292 292 293 293 291 291 290 290 290 290 289 290 290 290 290 291 291 292 292 292 291 291 288 285 284 283 283 283 283 284 284 286 293 293 296 298 297 297 298 297
293 292 292 292 291 291 291 290 290 291 290 289 290 290 289 289 289 289 290 290 290 290 290 290 290 287 284 284 283 283 282 282 283 283 289 292 292 291 294 297 297 296 296
Wind_Speed
9 10 11 12 12 11 9 9 8 8 6 6 6 5 6 4 5 4 5 6 5 7 7 7 8 7 7 8 7 8 9 9 12 9 9 10 13 14 12 9 7 8 10
12 12 13 12 10 9 10 9 8 7 7 8 7 8 9 8 7 7 6 7 6 7 10 11 11 9 10 9 8 9 8 9 10 18 12 11 11 11 13 10 8 11 11
13 12 10 9 9 9 8 8 7 5 6 6 6 5 6 5 5 8 10 10 11 11 11 12 12 11 10 8 9 7 7 8 10 11 13 10 11 10 11 12 10 12 11
12 11 10 9 8 7 6 6 5 4 4 3 1 3 5 10 11 12 12 11 11 11 11 11 11 12 11 9 10 11 10 10 10 11 12 12 10 12 11 12 11 9 10
12 11 10 9 9 8 8 7 7 7 7 8 8 9 10 8 9 9 10 10 11 11 11 11 11 12 18 12 7 8 10 8 9 10 11 12 12 12 13 12 12 11 6
11 10 9 9 8 8 9 10 9 11 10 9 8 9 9 8 12 14 13 10 10 11 11 11 12 15 13 16 18 17 12 10 13 11 11 13 16 14 13 12 11 10 9
11 11 11 9 10 10 10 9 9 8 8 9 10 9 8 8 11 13 19 9 10 10 11 11 11 10 12 13 17 19 19 21 16 13 15 14 15 15 13 13 13 11 10
12 12 11 11 11 10 10 10 9 9 8 6 7 7 5 7 12 17 19 11 8 9 9 11 11 11 13 16 15 15 14 12 12 10 12 14 14 15 14 12 13 12 10
13 12 12 12 11 11 11 10 9 7 7 6 5 7 7 8 15 18 16 11 11 12 12 11 7 11 20 21 14 13 14 13 13 19 19 20 22 23 20 9 9 6 7
13 12 12 12 12 11 10 9 9 8 8 7 7 6 10 9 14 18 16 9 11 10 10 12 10 19 21 21 13 11 13 15 17 18 15 15 13 11 15 9 7 7 5
12 11 11 10 11 10 9 8 8 9 8 9 9 7 9 10 12 21 22 9 8 9 10 11 11 25 23 22 15 10 13 17 17 12 10 9 9 4 4 4 5 5 4
10 11 11 11 10 9 10 9 11 9 9 9 9 8 8 9 17 19 21 12 14 7 9 10 12 22 20 18 15 17 19 13 9 9 9 9 9 5 6 6 5 3 1
10 10 10 11 11 11 11 11 9 10 8 9 8 7 8 8 9 17 17 15 17 8 6 13 16 16 18 13 20 20 16 11 10 11 11 11 5 3 4 4 4 4 3
9 10 9 10 10 10 8 8 9 9 9 8 8 8 8 8 9 10 10 9 11 10 10 11 12 13 14 15 15 15 12 12 11 10 11 11 6 5 2 2 2 2 3
9 9 8 6 9 10 10 8 8 9 8 7 8 8 9 9 11 16 12 9 8 9 8 8 11 14 15 15 14 14 13 13 14 13 11 11 10 7 5 3 2 2 2
8 7 3 4 6 7 6 6 9 7 8 9 8 8 8 11 18 20 19 16 16 21 4 8 11 11 13 13 13 13 13 17 13 12 12 12 10 9 9 8 7 6 5
7 5 4 6 6 7 7 6 6 5 5 4 7 7 10 14 20 24 23 14 18 16 11 11 10 11 11 12 12 12 12 12 13 12 11 13 8 10 10 9 8 7 6
8 2 6 5 7 8 7 5 3 3 4 5 5 4 5 8 16 22 21 13 11 11 10 10 11 10 11 12 12 12 13 13 13 13 13 12 12 8 7 8 8 7 6
6 5 7 6 5 7 6 3 2 2 2 2 6 7 4 3 4 13 16 11 10 11 10 10 9 11 10 11 11 11 13 13 13 14 14 13 13 10 7 7 6 10 8
7 10 8 6 5 7 6 6 6 6 6 6 6 8 9 5 7 6 7 7 7 8 8 11 10 10 11 12 12 12 13 13 14 13 14 14 14 13 12 9 8 8 8
7 6 8 8 7 7 7 7 7 7 7 5 2 6 8 9 9 9 8 6 4 3 6 8 11 12 12 12 12 12 13 13 13 14 13 13 14 13 13 10 8 8 7
7 7 8 8 6 7 7 7 7 8 8 7 7 6 9 8 9 8 9 9 9 1 4 9 10 11 12 12 13 13 13 13 13 14 14 13 13 13 13 13 10 8 7
8 9 9 7 7 7 7 8 7 7 7 8 8 8 8 8 8 10 10 9 8 8 9 9 11 11 11 11 12 12 13 13 14 13 13 12 12 13 13 13 12 11 7
9 9 9 9 7 7 7 7 7 9 8 8 7 8 8 8 8 9 10 9 9 9 10 10 11 16 13 13 12 12 12 14 13 13 17 11 13 13 12 13 13 15 12
9 9 9 8 7 7 7 8 7 7 8 8 7 8 9 8 10 9 9 10 9 10 11 11 10 16 18 21 21 23 22 24 21 21 12 16 15 16 12 11 13 11 14
9 9 8 7 8 8 7 7 8 8 7 7 7 7 8 9 9 10 9 11 10 10 12 10 13 18 21 16 19 22 23 24 22 26 14 14 14 14 11 10 14 10 13
Wind_Direction
89 86 85 77 74 72 73 72 66 53 37 35 18 0 353 356 355 5 339 301 333 339 327 317 309 307 294 293 297 300 294 287 295 311 314 311 307 295 288 287 291 296 291
86 83 79 80 81 79 73 63 51 48 35 30 3 13 0 0 4 348 337 326 318 343 343 333 320 316 311 307 302 306 311 307 302 296 296 290 279 278 280 267 279 283 285
94 94 88 86 83 84 80 67 58 46 43 27 4 2 346 345 333 352 6 4 356 349 327 320 313 310 309 308 307 302 296 284 277 282 291 287 281 279 286 277 268 266 268
106 100 94 89 89 84 80 75 68 65 58 22 337 329 358 47 33 13 1 346 340 328 314 312 309 300 307 318 299 296 293 295 294 290 287 288 290 288 277 279 274 262 265
98 95 93 81 69 69 68 60 45 39 29 5 11 15 33 51 29 12 356 342 325 315 310 302 302 313 309 323 330 341 332 319 307 300 296 295 291 289 282 287 289 291 274
98 96 87 85 77 60 55 48 40 33 31 7 20 17 38 47 29 18 1 327 316 309 311 323 332 328 349 342 352 342 323 308 297 293 291 283 284 284 284 284 284 283 285
84 81 77 71 64 56 54 49 40 45 27 19 20 31 57 45 26 9 350 321 324 333 340 325 322 326 19 354 334 318 305 299 294 291 284 280 287 287 291 284 275 274 271
76 74 67 67 62 56 55 48 33 36 31 16 21 16 39 46 26 11 350 351 331 310 319 328 323 5 5 344 326 315 309 305 301 296 284 284 282 285 281 281 284 285 278
70 64 64 59 59 52 47 42 29 22 30 29 10 15 25 42 24 7 358 349 348 349 337 328 40 4 349 340 326 317 312 313 310 301 289 279 273 274 274 280 272 267 276
68 62 58 65 58 53 43 37 30 10 26 19 9 20 45 26 24 1 5 346 349 340 327 351 14 3 341 334 340 327 322 320 321 315 306 298 287 272 270 261 256 251 245
66 66 54 53 68 48 43 41 29 32 30 25 10 13 33 37 17 359 350 343 347 334 354 358 351 345 338 335 337 338 318 305 302 308 309 310 312 310 298 298 277 223 227
67 67 58 57 51 46 40 28 35 19 33 26 13 13 9 23 29 349 338 350 353 338 11 359 341 333 334 337 342 329 321 319 320 325 328 325 322 347 350 354 346 336 267
74 70 70 61 52 49 46 33 29 23 28 20 10 8 359 18 10 350 344 358 348 355 5 1 338 342 347 353 350 350 349 352 343 342 332 320 319 336 353 339 346 20 56
70 62 64 71 66 52 47 50 39 28 18 21 16 5 357 11 1 350 343 335 340 335 356 3 356 354 5 3 1 1 358 352 346 337 329 322 334 339 2 329 353 6 51
63 61 56 60 91 75 61 43 55 53 37 18 17 8 357 3 345 328 325 325 320 314 324 3 8 9 6 1 360 358 354 353 352 346 341 341 353 360 350 293 287 252 119
58 59 33 68 72 81 77 85 76 67 53 38 16 24 5 1 342 346 348 339 346 354 41 15 16 11 6 355 353 350 356 353 345 341 343 343 359 5 3 8 9 33 53
57 3 59 66 83 72 66 57 46 17 0 13 5 9 7 10 12 7 360 5 47 21 20 14 19 12 360 357 352 351 349 349 341 348 348 349 358 11 10 16 10 16 18
102 297 65 56 77 80 79 71 62 37 7 356 330 326 18 6 32 20 11 5 28 27 14 13 14 8 5 355 350 352 347 349 351 350 352 348 350 3 18 14 17 14 17
60 51 107 88 74 106 114 145 128 52 345 330 5 353 185 208 62 46 34 38 25 17 5 3 19 7 5 358 352 355 353 351 347 350 354 351 355 350 18 15 12 23 22
67 18 42 62 76 84 77 62 48 59 49 40 16 7 349 47 28 65 53 41 34 19 12 7 6 17 6 1 356 357 355 355 349 352 352 349 353 355 360 29 30 33 30
87 72 63 58 43 49 50 45 42 42 46 63 93 13 345 20 31 23 41 51 56 1 349 8 16 13 11 5 359 359 358 352 348 347 349 342 355 353 359 6 39 30 40
75 75 72 63 70 51 54 42 45 48 40 43 30 40 34 28 22 23 29 41 21 50 358 33 26 20 13 5 1 357 358 352 346 343 341 335 359 356 0 3 17 36 37
80 68 65 65 63 65 67 64 45 52 53 42 37 26 42 37 28 17 17 26 34 25 29 25 38 25 17 10 5 359 356 348 336 339 334 330 357 1 7 6 10 17 28
61 75 89 81 74 46 65 56 60 57 37 42 41 36 25 40 31 28 17 10 28 24 39 21 49 34 19 15 5 359 355 346 335 341 336 342 354 4 11 11 10 10 14
56 57 51 52 62 56 58 56 66 52 52 29 41 37 26 30 34 14 27 10 16 27 32 28 44 34 24 17 10 1 352 349 347 343 331 358 8 359 12 19 13 15 16
59 51 53 48 40 41 42 58 37 44 44 52 26 39 40 25 34 21 14 18 11 20 25 31 15 49 26 16 9 359 353 351 349 342 339 3 2 1 356 21 21 22 20